New York, NY

10:42 AM EST on December 13, 2019 (GMT -0500)
La Guardia

Weather History for KLGA - October, 2019

Change the Weather History Date:

Wednesday, October 30, 2019

  Actual Average Record
Temperature  
Mean Temperature 58 °F 54 °F  
Max Temperature 60 °F 60 °F 81 °F (1946)
Min Temperature 55 °F 47 °F 35 °F (1975)
Degree Days  
Heating Degree Days 8 12  
Month to date heating degree days 149 225  
Since 1 July heating degree days 152 260  
Cooling Degree Days 0 0  
Month to date cooling degree days 29 20  
Year to date cooling degree days 1484 1210  
Growing Degree Days 8 (Base 50)    
Moisture  
Dew Point 58 °F    
Average Humidity 98    
Maximum Humidity 100    
Minimum Humidity 90    
Precipitation  
Precipitation 0.04 in 0.11 in 1.18 in (1955)
Month to date precipitation 5.19 3.66  
Year to date precipitation 41.67 37.64  
Snow  
Snow 0.00 in 0.00 in - ()
Month to date snowfall 0.0 0.0  
Since 1 July snowfall 0.0 0.0  
Snow Depth 0.00 in    
Sea Level Pressure  
Sea Level Pressure 30.22 in    
Wind  
Wind Speed 7 mph ()    
Max Wind Speed 15 mph    
Max Gust Speed 20 mph    
Visibility 2.3 miles    
Events Rain    
T = Trace of Precipitation, MM = Missing Value Source: Averaged Metar Reports

Daily Weather History Graph

Daily Weather History Graph

Search for Another Location

Airport or City:

Astronomy

Oct. 30, 2019 Rise Set
Actual Time 7:23 AM EDT 5:54 PM EDT
Civil Twilight 6:54 AM EDT 6:22 PM EDT
Nautical Twilight 6:22 AM EDT 6:54 PM EDT
Astronomical Twilight 5:50 AM EDT 7:26 PM EDT
Moon 10:04 AM EDT (10/30) 7:59 PM EDT (10/30)
Length of Visible Light 11h 27m
Length of Day
10h 31m
Waxing Crescent, 8% of the Moon is Illuminated
Oct 30
Waxing Crescent
Nov 4
First Quarter
Nov 12
Full
Nov 19
Last Quarter
Nov 26
New

Hourly Weather History & Observations

Time (EDT) Temp. Dew Point Humidity Pressure Visibility Wind Dir Wind Speed Gust Speed Precip Events Conditions
12:51 AM 57.9 °F 57.9 °F 100% 30.27 in 1.0 mi NNE 5.8 mph - N/A   Overcast
12:59 AM 57.9 °F 57.9 °F 100% 30.27 in 1.0 mi NNE 5.8 mph - N/A   Overcast
1:51 AM 57.0 °F 57.0 °F 100% 30.27 in 0.5 mi NNE 5.8 mph - 0.00 in   Light Drizzle
2:37 AM 57.0 °F 57.0 °F 100% 30.27 in 0.5 mi NE 5.8 mph - 0.00 in   Light Drizzle
2:47 AM 57.2 °F 57.2 °F 100% 30.27 in 6.0 mi NE 5.8 mph - 0.00 in   Overcast
2:51 AM 57.0 °F 57.0 °F 100% 30.27 in 6.0 mi NE 5.8 mph - 0.00 in   Overcast
3:18 AM 57.0 °F 57.0 °F 100% 30.26 in 6.0 mi NE 5.8 mph - N/A   Overcast
3:51 AM 57.0 °F 57.0 °F 100% 30.26 in 6.0 mi NE 6.9 mph - N/A   Overcast
4:16 AM 57.0 °F 57.0 °F 100% 30.25 in 4.0 mi NE 6.9 mph - N/A   Overcast
4:20 AM 57.0 °F 57.0 °F 100% 30.25 in 0.5 mi NE 6.9 mph - N/A   Overcast
4:45 AM 57.2 °F 57.2 °F 100% 30.25 in 0.2 mi NNE 5.8 mph - N/A   Overcast
4:51 AM 55.9 °F 55.9 °F 100% 30.26 in 0.2 mi NNE 6.9 mph - 0.00 in   Light Drizzle
5:51 AM 55.9 °F 55.9 °F 100% 30.26 in 0.2 mi NE 6.9 mph - 0.00 in   Overcast
6:43 AM 57.0 °F 57.0 °F 100% 30.27 in 1.0 mi NNE 6.9 mph - N/A   Overcast
6:51 AM 57.0 °F 57.0 °F 100% 30.27 in 1.0 mi NE 5.8 mph - N/A   Overcast
7:17 AM 57.0 °F 57.0 °F 100% 30.27 in 1.0 mi NE 6.9 mph - 0.00 in   Light Drizzle
7:32 AM 57.0 °F 55.9 °F 96% 30.28 in 0.8 mi NE 6.9 mph - 0.00 in   Light Drizzle
7:51 AM 57.0 °F 57.0 °F 100% 30.28 in 0.8 mi NE 5.8 mph - 0.00 in   Light Drizzle
8:15 AM 57.0 °F 57.0 °F 100% 30.29 in 0.8 mi NE 5.8 mph - 0.00 in   Light Drizzle
8:51 AM 57.9 °F 57.9 °F 100% 30.29 in 0.8 mi NE 6.9 mph - 0.01 in   Overcast
9:51 AM 57.9 °F 57.9 °F 100% 30.28 in 1.0 mi NE 11.5 mph - N/A   Overcast
10:13 AM 59.0 °F 57.9 °F 96% 30.27 in 1.5 mi NE 10.4 mph - N/A   Overcast
10:51 AM 59.0 °F 57.9 °F 96% 30.27 in 2.0 mi NE 9.2 mph - N/A   Overcast
11:13 AM 59.0 °F 57.9 °F 96% 30.27 in 0.5 mi NE 10.4 mph - N/A   Overcast
11:36 AM 60.1 °F 59.0 °F 96% 30.26 in 2.0 mi ENE 10.4 mph - N/A   Overcast
11:51 AM 60.1 °F 57.9 °F 93% 30.27 in 2.0 mi NNE 8.1 mph - N/A   Overcast
11:56 AM 60.1 °F 57.9 °F 93% 30.26 in 2.0 mi NE 10.4 mph - N/A   Overcast
12:51 PM 60.1 °F 57.9 °F 93% 30.25 in 2.0 mi NNE 9.2 mph - N/A   Overcast
1:51 PM 60.1 °F 59.0 °F 96% 30.22 in 2.0 mi NE 10.4 mph - 0.00 in Rain Light Rain
2:51 PM 60.1 °F 59.0 °F 96% 30.19 in 2.0 mi NE 13.8 mph - 0.00 in   Overcast
3:29 PM 60.1 °F 59.0 °F 96% 30.19 in 4.0 mi NE 11.5 mph - N/A   Overcast
3:51 PM 60.1 °F 59.0 °F 96% 30.19 in 4.0 mi NE 12.7 mph - N/A   Overcast
4:06 PM 60.1 °F 59.0 °F 96% 30.18 in 4.0 mi NE 11.5 mph - N/A   Overcast
4:51 PM 60.1 °F 59.0 °F 96% 30.17 in 4.0 mi NE 11.5 mph - N/A   Overcast
5:51 PM 60.1 °F 59.0 °F 96% 30.15 in 4.0 mi NE 10.4 mph - N/A   Overcast
6:02 PM 60.1 °F 59.0 °F 96% 30.16 in 4.0 mi NE 10.4 mph - N/A   Overcast
6:21 PM 60.1 °F 59.0 °F 96% 30.16 in 4.0 mi NE 8.1 mph - N/A   Overcast
6:34 PM 60.1 °F 59.0 °F 96% 30.16 in 4.0 mi NE 9.2 mph - N/A   Overcast
6:51 PM 59.0 °F 59.0 °F 100% 30.15 in 4.0 mi NE 10.4 mph - N/A   Overcast
7:04 PM 60.1 °F 59.0 °F 96% 30.15 in 4.0 mi NE 10.4 mph - N/A   Overcast
7:10 PM 60.1 °F 59.0 °F 96% 30.15 in 2.0 mi NE 10.4 mph - N/A   Overcast
7:51 PM 59.0 °F 59.0 °F 100% 30.14 in 2.0 mi NE 8.1 mph - N/A   Overcast
7:58 PM 59.0 °F 59.0 °F 100% 30.14 in 1.2 mi NE 8.1 mph - N/A   Overcast
8:51 PM 59.0 °F 59.0 °F 100% 30.13 in 2.0 mi NNE 4.6 mph - N/A   Overcast
9:01 PM 59.0 °F 59.0 °F 100% 30.13 in 2.0 mi NE 4.6 mph - N/A   Overcast
9:51 PM 59.0 °F 59.0 °F 100% 30.12 in 2.0 mi ENE 4.6 mph - N/A   Overcast
10:51 PM 60.1 °F 59.0 °F 96% 30.11 in 2.0 mi SSW 5.8 mph - 0.00 in   Overcast
11:38 PM 60.1 °F 60.1 °F 100% 30.09 in 3.0 mi SSW 5.8 mph - 0.00 in Rain Light Rain
11:51 PM 60.1 °F 60.1 °F 100% 30.09 in 3.0 mi South 5.8 mph - 0.00 in   Overcast